Bluefield, WV

3:54 AM EST on November 21, 2017 (GMT -0500)
Mercer County

Weather History for KBLF - January, 2013

Change the Weather History Date:

Friday, January 4, 2013

  Actual Average Record
Temperature  
Mean Temperature 26 °F 34 °F  
Max Temperature 29 °F 42 °F 69 °F (2007)
Min Temperature 22 °F 26 °F -1 °F (1981)
Degree Days  
Heating Degree Days 39 31  
Month to date heating degree days 136 124  
Since 1 July heating degree days 1896 1889  
Cooling Degree Days 0 0  
Month to date cooling degree days 0 0  
Year to date cooling degree days 0 0  
Moisture  
Dew Point 18 °F    
Average Humidity 72    
Maximum Humidity 81    
Minimum Humidity 63    
Precipitation  
Precipitation 0.00 in 0.10 in 0.59 in (1972)
Month to date precipitation 0.17 0.37  
Year to date precipitation 0.17 0.37  
Snow  
Snow 0.00 in - - ()
Month to date snowfall 0.3  
Since 1 July snowfall 17.2  
Snow Depth 0.00 in    
Sea Level Pressure  
Sea Level Pressure 30.28 in    
Wind  
Wind Speed 12 mph (WNW)    
Max Wind Speed 21 mph    
Max Gust Speed 29 mph    
Visibility 10 miles    
Events      
T = Trace of Precipitation, MM = Missing Value Source: NWS Daily Summary

Daily Weather History Graph

Daily Weather History Graph

Search for Another Location

Airport or City:

Trip Planner

Search our weather history database for the weather conditions in past years. The results will help you decide how hot, cold, wet, or windy it might be!

Date:

Astronomy

Jan. 04, 2013 Rise Set
Actual Time 7:39 AM EST 5:20 PM EST
Civil Twilight 7:10 AM EST 5:49 PM EST
Nautical Twilight 6:37 AM EST 6:22 PM EST
Astronomical Twilight 6:06 AM EST 6:53 PM EST
Moon No Moon Rise 11:31 AM EST (1/4)
Length of Visible Light 10h 39m
Length of Day
9h 41m
Waning Gibbous, 55% of the Moon is Illuminated
Jan 4
Waning Gibbous
Jan 4
Last Quarter
Jan 11
New
Jan 18
First Quarter
Jan 26
Full

Hourly Weather History & Observations

Time (EST) Temp. Windchill Dew Point Humidity Pressure Visibility Wind Dir Wind Speed Gust Speed Precip Events Conditions
1:52 AM 25.0 °F 14.8 °F 18.0 °F 75% 30.28 in 10.0 mi West 10.4 mph - N/A   Clear
2:52 AM 24.1 °F 13.7 °F 17.1 °F 75% 30.29 in 10.0 mi WNW 10.4 mph - N/A   Partly Cloudy
3:52 AM 23.0 °F 12.4 °F 16.0 °F 74% 30.29 in 10.0 mi West 10.4 mph - N/A   Clear
4:52 AM 23.0 °F 14.7 °F 16.0 °F 74% 30.29 in 10.0 mi West 6.9 mph - N/A   Scattered Clouds
5:13 AM 23.0 °F 13.9 °F 15.8 °F 74% 30.21 in 10.0 mi West 8.1 mph - N/A   Mostly Cloudy
5:43 AM 21.2 °F 11.7 °F 15.8 °F 80% 30.21 in 10.0 mi West 8.1 mph - N/A   Scattered Clouds
5:52 AM 21.9 °F 11.7 °F 16.0 °F 78% 30.29 in 10.0 mi West 9.2 mph - N/A   Partly Cloudy
6:52 AM 21.9 °F 11.7 °F 16.0 °F 78% 30.30 in 10.0 mi West 9.2 mph - N/A   Scattered Clouds
7:00 AM 21.2 °F 11.7 °F 15.8 °F 80% 30.22 in 10.0 mi West 8.1 mph - N/A   Mostly Cloudy
7:24 AM 23.0 °F 11.1 °F 17.6 °F 80% 30.23 in 10.0 mi West 12.7 mph - N/A   Overcast
7:52 AM 23.0 °F 12.4 °F 17.1 °F 78% 30.31 in 10.0 mi WNW 10.4 mph 20.7 mph N/A   Overcast
8:52 AM 24.1 °F 10.1 °F 17.1 °F 75% 30.32 in 10.0 mi West 18.4 mph 26.5 mph N/A   Overcast
9:52 AM 24.1 °F 12.0 °F 17.1 °F 75% 30.35 in 10.0 mi WNW 13.8 mph 24.2 mph N/A   Overcast
10:52 AM 25.0 °F 12.6 °F 18.0 °F 75% 30.34 in 10.0 mi WNW 15.0 mph 24.2 mph N/A   Overcast
11:52 AM 26.1 °F 14.5 °F 18.0 °F 71% 30.32 in 10.0 mi West 13.8 mph 23.0 mph N/A   Overcast
12:52 PM 27.0 °F 16.7 °F 18.0 °F 69% 30.30 in 10.0 mi WNW 11.5 mph 21.9 mph N/A   Overcast
1:24 PM 26.6 °F 14.7 °F 17.6 °F 69% 30.21 in 10.0 mi WNW 15.0 mph 23.0 mph N/A   Mostly Cloudy
1:32 PM 26.6 °F 14.7 °F 17.6 °F 69% 30.21 in 10.0 mi WNW 15.0 mph 23.0 mph N/A   Partly Cloudy
1:52 PM 28.9 °F 17.3 °F 18.0 °F 64% 30.27 in 10.0 mi WNW 16.1 mph 23.0 mph N/A   Clear
2:52 PM 28.9 °F 18.2 °F 18.0 °F 64% 30.27 in 10.0 mi WNW 13.8 mph 20.7 mph N/A   Mostly Cloudy
3:32 PM 28.4 °F 19.7 °F 19.4 °F 69% 30.20 in 10.0 mi West 9.2 mph 16.1 mph N/A   Scattered Clouds
3:52 PM 28.9 °F 18.6 °F 19.0 °F 67% 30.29 in 10.0 mi WNW 12.7 mph 18.4 mph N/A   Partly Cloudy
4:52 PM 28.9 °F 18.2 °F 19.0 °F 67% 30.30 in 10.0 mi WNW 13.8 mph 23.0 mph N/A   Mostly Cloudy
5:09 PM 28.4 °F 18.5 °F 17.6 °F 64% 30.22 in 10.0 mi West 11.5 mph - N/A   Scattered Clouds
5:31 PM 28.4 °F 18.5 °F 19.4 °F 69% 30.22 in 10.0 mi West 11.5 mph 23.0 mph N/A   Mostly Cloudy
5:52 PM 28.0 °F 18.6 °F 18.0 °F 66% 30.31 in 10.0 mi West 10.4 mph 26.5 mph N/A   Overcast
6:52 PM 28.9 °F 18.2 °F 19.0 °F 67% 30.32 in 10.0 mi West 13.8 mph 21.9 mph N/A   Overcast
8:16 PM 28.4 °F 17.0 °F 19.4 °F 69% 30.27 in 10.0 mi West 15.0 mph 20.7 mph N/A   Scattered Clouds
8:52 PM 28.0 °F 18.6 °F 18.0 °F 66% 30.34 in 10.0 mi West 10.4 mph 17.3 mph N/A   Clear
9:52 PM 27.0 °F 17.3 °F 18.0 °F 69% 30.34 in 10.0 mi West 10.4 mph - N/A   Clear
10:52 PM 27.0 °F 17.3 °F 18.0 °F 69% 30.34 in 10.0 mi West 10.4 mph - N/A   Clear
11:52 PM 26.1 °F 18.4 °F 18.0 °F 71% 30.35 in 10.0 mi West 6.9 mph - N/A   Clear